Total_Precipitation_Accumulation
2.68 2.63 2.53 2.45 2.26 2.33 2.67 2.92 2.80 2.80 2.69 2.52 2.27 2.07 1.92 1.80 1.73 1.86 2.04 2.19 2.18 2.21 2.41 2.52 2.35 2.11 2.03 1.90 1.71 1.51 1.42 1.40 1.27 1.05 0.93 0.84 0.74 0.74 0.77 0.82 0.82 0.70 0.67
3.08 3.19 3.05 2.88 2.51 2.41 2.46 2.74 2.82 3.02 2.95 2.76 2.17 2.04 2.01 2.00 2.03 1.97 2.15 2.64 2.63 2.25 2.24 2.51 2.67 2.63 2.47 2.29 2.08 1.86 1.72 1.60 1.38 1.12 1.04 0.97 0.85 0.77 0.84 0.93 0.93 0.76 0.62
3.27 3.24 3.05 2.70 2.41 2.38 2.54 2.54 2.55 2.83 2.66 2.52 2.39 2.43 2.39 2.28 2.15 2.09 2.19 2.65 2.65 2.30 2.15 2.20 2.48 2.70 2.81 2.89 2.79 2.68 2.39 2.03 1.66 1.33 1.13 0.99 0.88 0.77 0.77 0.90 0.97 0.87 0.70
2.82 2.90 2.60 2.27 2.30 2.44 2.56 2.73 2.61 2.68 2.73 2.81 2.85 2.80 2.67 2.51 2.08 1.93 1.85 1.97 2.22 1.95 2.07 2.28 2.34 2.41 2.81 3.24 3.40 3.60 3.27 2.61 2.02 1.59 1.33 1.11 0.96 0.81 0.73 0.78 0.89 0.88 0.74
2.16 2.34 2.25 2.20 2.20 2.38 2.43 2.27 2.63 2.84 2.84 2.86 2.67 2.71 2.36 2.22 1.99 1.72 1.68 1.62 1.77 1.92 1.94 2.01 2.11 2.16 2.59 3.30 3.88 4.31 4.17 3.48 2.73 2.23 1.90 1.53 1.30 1.03 0.88 0.83 0.84 0.82 0.73
1.97 2.22 2.19 2.13 2.13 2.32 2.45 2.57 2.86 2.98 2.67 2.61 2.38 2.26 1.98 1.63 1.58 1.55 1.42 1.48 1.59 1.56 1.72 1.92 2.16 1.95 2.38 2.94 3.56 4.20 4.66 4.40 3.59 2.98 2.68 2.37 2.08 1.64 1.21 0.97 0.87 0.83 0.78
2.10 2.35 2.21 2.26 2.10 2.18 2.21 2.32 2.57 2.69 2.34 2.43 2.86 2.46 1.86 1.49 1.48 1.37 1.36 1.45 1.50 1.53 1.74 2.04 2.22 2.27 2.32 2.34 2.62 3.32 4.26 4.72 4.42 3.76 3.35 3.03 2.73 2.23 1.65 1.32 1.11 0.95 0.90
2.03 2.07 2.23 2.09 2.04 2.17 2.17 2.23 2.43 2.43 2.14 2.33 2.80 2.92 2.38 1.99 1.68 1.30 1.29 1.35 1.48 1.70 1.78 1.82 2.22 2.53 2.54 2.87 2.48 2.49 3.21 4.07 4.52 4.32 3.89 3.31 2.90 2.50 2.10 1.83 1.52 1.28 1.12
1.79 1.83 1.86 1.93 2.04 1.84 1.99 2.17 2.30 2.39 2.27 2.20 2.47 2.90 2.69 2.34 1.99 1.60 1.47 1.55 1.70 1.87 1.93 2.09 2.20 2.41 2.61 3.07 2.97 2.71 2.70 2.99 3.84 4.56 4.54 3.84 3.02 2.49 2.31 2.27 2.14 1.76 1.47
1.60 1.63 1.65 1.82 1.90 1.84 2.08 1.81 1.93 2.20 2.41 2.22 2.25 2.30 2.35 2.57 2.54 2.12 1.75 1.63 1.74 1.88 1.96 1.97 2.04 2.31 2.54 2.88 3.20 2.92 2.61 2.42 2.76 3.67 4.33 4.26 3.57 2.81 2.47 2.56 2.90 2.72 2.19
1.56 1.42 1.53 1.69 1.79 1.85 1.94 1.88 1.99 1.96 2.04 2.10 2.18 2.18 2.30 2.51 2.39 2.30 2.10 1.88 1.79 1.64 1.70 1.82 2.00 2.23 2.39 2.65 3.01 2.72 2.58 2.31 2.22 2.52 3.13 3.60 3.67 3.37 3.08 3.07 3.54 3.87 3.63
1.62 1.45 1.49 1.69 1.77 1.81 1.83 1.89 1.90 1.82 1.91 2.02 2.07 2.10 2.28 2.31 2.25 2.34 2.21 2.02 1.91 1.63 1.61 1.69 1.89 2.05 2.12 2.24 2.06 2.04 2.06 2.16 2.09 1.97 2.07 2.37 2.80 3.11 3.21 3.48 3.97 4.50 4.78
1.53 1.52 1.49 1.75 1.84 1.82 1.79 1.88 1.86 1.85 1.97 2.05 2.07 2.11 2.18 2.15 2.17 2.35 2.39 2.14 1.97 1.77 1.84 1.79 1.78 1.93 1.91 2.11 2.05 1.87 1.76 1.87 1.78 1.67 1.60 1.68 1.96 2.36 2.71 3.03 3.47 3.98 4.47
1.46 1.67 1.77 1.79 1.77 1.79 1.81 2.05 1.90 1.92 2.00 2.03 1.95 2.28 2.25 2.11 2.31 2.52 2.69 2.74 2.42 2.18 2.18 1.98 1.79 1.80 1.81 1.86 1.91 1.92 1.79 1.65 1.48 1.40 1.39 1.45 1.55 1.79 2.05 2.32 2.62 2.86 3.11
1.49 1.67 1.82 1.91 1.83 1.79 1.89 2.11 2.07 2.11 2.22 2.12 2.11 2.35 2.31 2.20 2.26 2.33 2.62 2.92 2.96 2.69 2.55 2.32 2.08 1.96 1.87 1.85 1.96 1.80 1.78 1.80 1.56 1.41 1.42 1.42 1.46 1.52 1.55 1.58 1.69 1.79 1.94
1.64 1.70 1.67 1.71 1.71 1.69 1.81 2.12 2.13 2.17 2.34 2.28 2.24 2.28 2.30 2.20 2.28 2.28 2.42 2.78 3.07 3.09 2.79 2.21 2.11 2.01 1.92 1.73 1.85 1.69 1.71 1.85 1.63 1.46 1.36 1.27 1.26 1.27 1.30 1.38 1.50 1.54 1.61
1.72 1.68 1.63 1.66 1.65 1.56 1.63 1.81 1.92 2.10 2.23 2.30 2.27 2.31 2.30 2.42 2.47 2.37 2.46 2.60 2.83 3.02 2.70 2.19 2.25 2.39 2.33 2.11 1.93 1.76 1.64 1.61 1.59 1.57 1.30 1.21 1.22 1.17 1.22 1.30 1.37 1.41 1.48
1.78 1.75 1.71 1.68 1.56 1.55 1.63 1.73 1.86 2.03 2.17 2.28 2.39 2.47 2.27 2.35 2.49 2.43 2.43 2.47 2.59 2.87 2.77 2.62 2.56 2.62 2.53 2.27 2.05 1.79 1.50 1.36 1.42 1.64 1.37 1.20 1.15 1.16 1.20 1.22 1.18 1.17 1.18
1.73 1.78 1.80 1.73 1.68 1.71 1.78 1.83 1.88 2.02 2.14 2.21 2.31 2.31 2.26 2.40 2.31 2.36 2.44 2.42 2.42 2.48 2.61 2.59 2.47 2.52 2.45 2.24 2.06 1.81 1.57 1.53 1.39 1.42 1.34 1.23 1.17 1.14 1.15 1.11 1.06 1.04 1.05
1.59 1.63 1.63 1.71 1.75 1.79 1.82 1.82 1.81 1.84 1.91 1.98 1.98 1.88 1.82 1.89 1.97 2.16 2.16 2.18 2.26 2.32 2.41 2.36 2.33 2.40 2.40 2.43 2.27 1.98 1.83 1.66 1.48 1.27 1.26 1.24 1.23 1.18 1.14 1.07 0.98 0.96 1.00
1.50 1.66 1.68 1.77 1.83 1.79 1.70 1.74 1.72 1.65 1.82 1.77 1.64 1.59 1.60 1.69 1.73 1.82 1.75 1.85 2.03 2.11 2.16 2.24 2.31 2.47 2.48 2.60 2.47 2.19 2.05 1.90 1.63 1.38 1.31 1.23 1.21 1.16 1.15 1.15 1.09 0.99 0.94
1.57 1.66 1.71 1.83 1.86 1.70 1.74 1.75 1.75 1.73 1.79 1.74 1.69 1.61 1.48 1.48 1.47 1.51 1.52 1.58 1.73 1.87 2.05 2.22 2.28 2.38 2.44 2.40 2.36 2.24 2.13 1.96 1.68 1.50 1.60 1.56 1.36 1.34 1.45 1.41 1.31 1.05 0.90
1.65 1.73 1.86 1.91 1.86 1.90 1.79 1.62 1.64 1.63 1.69 1.72 1.75 1.73 1.45 1.28 1.40 1.36 1.49 1.46 1.43 1.48 1.59 1.77 1.90 2.04 2.24 2.33 2.41 2.33 2.33 2.20 1.90 1.64 1.58 1.46 1.37 1.41 1.59 1.73 1.48 1.06 0.95
1.81 1.92 1.95 1.85 1.79 1.81 1.74 1.45 1.36 1.28 1.40 1.51 1.60 1.66 1.65 1.56 1.53 1.53 1.59 1.59 1.51 1.48 1.56 1.56 1.61 1.83 2.17 2.45 2.50 2.45 2.48 2.35 2.05 1.70 1.59 1.49 1.35 1.32 1.21 1.22 1.29 1.04 0.88
2.03 2.09 2.11 2.05 1.93 1.90 1.73 1.39 1.25 1.18 1.32 1.40 1.46 1.47 1.47 1.39 1.43 1.34 1.36 1.44 1.45 1.39 1.37 1.38 1.40 1.54 1.81 2.17 2.37 2.41 2.49 2.39 2.16 1.84 1.63 1.58 1.37 1.28 1.18 1.06 1.08 1.14 0.98
2.21 2.23 2.12 1.99 1.89 1.88 1.82 1.50 1.31 1.22 1.35 1.42 1.52 1.50 1.48 1.41 1.39 1.25 1.20 1.27 1.26 1.27 1.33 1.33 1.30 1.29 1.39 1.69 2.01 2.01 2.09 2.22 2.02 1.78 1.43 1.35 1.28 1.21 1.20 1.04 0.93 0.95 0.96